Aérodrome :
LOGIN :

S'inscrire | Disclaimer

   EN    FR    IT 

 










Légende :    VFR   VFR Marginal   IFR   IFR Intensif   IFR Très Intensif
Visi : 
Plafond : 
>= 8 km
>= 3000ft
5 à 8 km
1000 à 3000 ft
1500m à 5 km
500 à 1000 ft
800 à 1500m
200 à 500 ft
< 800m
< 200 ft
Symboles :   Orages  Brouillard  Fortes neiges  Fortes précipitations  Vent > 20 kt
SIGMETs :   Divers  Orages  Givrage  Turbulence  Onde Orograph.  Cendres Volcan.






- Altitude de l'aérodrome : 79 ft
- Code IATA : NSY


LICZ - Sigonella (Mil) Catania

DERNIER METAR :
  • 280055Z 28007KT 9999 FEW060 12/10 Q1025 RMK FEW VIS MIN 9999 WIND THR28 28007KT WIND THR10 28005KT A3029 BLU

METARs EXPIRÉS :
  • 272355Z 26006KT 9999 FEW060 12/12 Q1025 RMK FEW VIS MIN 9999 WIND THR28 26006KT WIND THR10 27006KT A3029 BLU

TAF TAF LICZ
Valide du 28 à 00h jusqu'au 29 à 00h UTC


272300Z 2800/2824 27005KT 9999 FEW025
BECMG 2810/2812 10015KT
BECMG 2818/2820 06004KT



MET'MAP, la Météo Aéronautique d'un coup d'oeil ! - Copyright ORBIFLY Décembre 2007 - Disclaimer

ORBIFLY MET'MAP TEAM :

Programmation & Développement : Alexandra Zaïnal
Sur une idée originale de : Baudouin d'Aumeries
Assistance à la programmation : Marc-Olivier Méhu
Soutien technique & logistique : Manuel Goepfert

Contact : metmap@orbifly.com




SOURCES & CREDITS :

   NOAA